Greenville, SC

9:03 AM EDT on August 27, 2016 (GMT -0400)
Greenville Downtown

Weather History for KGMU - May, 2013

Change the Weather History Date:

Thursday, May 9, 2013

  Actual Average Record
Temperature  
Mean Temperature 68 °F -  
Max Temperature 84 °F 76 °F 88 °F (2002)
Min Temperature 54 °F 56 °F 54 °F (1999)
Cooling Degree Days 3    
Growing Degree Days 18 (Base 50)    
Moisture  
Dew Point 54 °F    
Average Humidity 60    
Maximum Humidity 90    
Minimum Humidity 33    
Precipitation  
Precipitation 0.00 in - - ()
Sea Level Pressure  
Sea Level Pressure 30.05 in    
Wind  
Wind Speed 3 mph (WSW)    
Max Wind Speed 14 mph    
Max Gust Speed 18 mph    
Visibility 10 miles    
Events Thunderstorm    
Averages and records for this station are not official NWS values.
T = Trace of Precipitation, MM = Missing Value Source: NWS Daily Summary

Daily Weather History Graph

Daily Weather History Graph

Search for Another Location

Airport or City:

Trip Planner

Search our weather history database for the weather conditions in past years. The results will help you decide how hot, cold, wet, or windy it might be!

Date:

Astronomy

May. 09, 2013 Rise Set
Actual Time 6:30 AM EDT 8:21 PM EDT
Civil Twilight 6:03 AM EDT 8:48 PM EDT
Nautical Twilight 5:29 AM EDT 9:22 PM EDT
Astronomical Twilight 4:54 AM EDT 9:57 PM EDT
Moon 6:13 AM EDT (5/9) 8:15 PM EDT (5/9)
Length of Visible Light 14h 45m
Length of Day
13h 50m
Waning Crescent, 0% of the Moon is Illuminated
May 9
Waning Crescent
May 9
New
May 18
First Quarter
May 25
Full
May 31
Last Quarter

Hourly Weather History & Observations

Time (EDT) Temp. Heat Index Dew Point Humidity Pressure Visibility Wind Dir Wind Speed Gust Speed Precip Events Conditions
12:53 AM 63.0 °F - 52.0 °F 67% 30.02 in 10.0 mi NNW 3.5 mph - N/A   Clear
1:53 AM 59.0 °F - 54.0 °F 83% 30.02 in 10.0 mi Calm Calm - N/A   Clear
2:53 AM 57.9 °F - 53.1 °F 84% 30.01 in 10.0 mi Calm Calm - N/A   Clear
3:53 AM 55.9 °F - 52.0 °F 87% 30.00 in 10.0 mi Calm Calm - N/A   Clear
4:53 AM 55.9 °F - 52.0 °F 87% 30.01 in 10.0 mi Calm Calm - N/A   Clear
5:53 AM 54.0 °F - 51.1 °F 90% 30.03 in 10.0 mi West 3.5 mph - N/A   Clear
6:53 AM 54.0 °F - 51.1 °F 90% 30.06 in 10.0 mi Calm Calm - N/A   Clear
7:53 AM 62.1 °F - 53.1 °F 72% 30.07 in 10.0 mi Calm Calm - N/A   Clear
8:53 AM 66.9 °F - 52.0 °F 59% 30.09 in 10.0 mi West 5.8 mph - N/A   Clear
9:53 AM 71.1 °F - 53.1 °F 53% 30.09 in 10.0 mi Calm Calm - N/A   Clear
10:53 AM 75.0 °F - 50.0 °F 41% 30.09 in 10.0 mi Variable 4.6 mph - N/A   Clear
11:53 AM 77.0 °F - 51.1 °F 40% 30.09 in 10.0 mi NNE 4.6 mph - N/A   Clear
1:53 PM 82.0 °F - 50.0 °F 33% 30.08 in 10.0 mi South 8.1 mph - N/A   Partly Cloudy
2:53 PM 82.0 °F - 52.0 °F 35% 30.06 in 10.0 mi SSE 5.8 mph - N/A   Mostly Cloudy
3:53 PM 79.0 °F - 52.0 °F 39% 30.04 in 10.0 mi South 9.2 mph - N/A   Mostly Cloudy
4:15 PM 82.4 °F - 51.8 °F 35% 30.05 in 10.0 mi West 8.1 mph - N/A   Mostly Cloudy
4:53 PM 81.0 °F - 52.0 °F 36% 30.03 in 10.0 mi South 6.9 mph - N/A   Mostly Cloudy
5:44 PM 80.6 °F 80.3 °F 53.6 °F 39% 30.05 in 10.0 mi WSW 10.4 mph 18.4 mph N/A Thunderstorm Clear
5:53 PM 79.0 °F - 53.1 °F 40% 30.04 in 10.0 mi West 13.8 mph 17.3 mph N/A Thunderstorm Clear
6:19 PM 78.8 °F - 55.4 °F 44% 30.07 in 10.0 mi WSW 6.9 mph - N/A   Mostly Cloudy
6:53 PM 75.9 °F - 55.9 °F 50% 30.05 in 10.0 mi Variable 3.5 mph - N/A   Partly Cloudy
7:53 PM 73.9 °F - 57.9 °F 57% 30.05 in 10.0 mi ENE 5.8 mph - N/A   Clear
8:53 PM 70.0 °F - 57.9 °F 65% 30.06 in 10.0 mi Calm Calm - N/A   Clear
9:53 PM 69.1 °F - 57.9 °F 68% 30.07 in 10.0 mi Calm Calm - N/A   Clear
10:53 PM 66.9 °F - 59.0 °F 76% 30.07 in 10.0 mi Calm Calm - N/A   Clear
11:53 PM 64.9 °F - 57.9 °F 78% 30.07 in 10.0 mi Calm Calm - N/A   Clear